sim
Sign-in with your pilot id or email,
or register
Callsign
Passwort

Schedule Details

Flight Number: RYR6302 (3)
Departure: Barcelona El Prat Airport (LEBL) at 06:20
Arrival: Fuerteventura Airport (GCFV) at 09:35
Route: Ryanair Passenger Schedule. Enter filed route here before submitting Pirep.

Weather Information
Getting current METAR information for LEBL 172230Z 00000KT 9999 FEW015 24/21 Q1014 NOSIG
Getting current METAR information for GCFV 172230Z AUTO 03004KT 7000 NSC 24/20 Q1014

Schedule Frequency

Route Map